{"data":{"norad_id":82363,"epoch":"2026-05-23T14:22:38.633664Z","epoch_age_seconds":196230,"freshness":"STALE","line1":"1 82363U          26143.59905826 -.00000351  00000+0 -45730-3 0  9994","line2":"2 82363  66.9365 207.3644 0450317  61.2620 303.2896 13.15745745311550","mean_motion":13.15745745,"eccentricity":0.0450317,"inclination_deg":66.9365,"raan_deg":207.3644,"arg_perigee_deg":61.262,"mean_anomaly_deg":303.2896,"bstar":-0.0004573,"rev_number":31155,"period_min":109.44363722795,"perigee_km":859.71137161198,"apogee_km":1542.3154256228,"semimajor_km":7579.1503986174,"source":"CELESTRAK","updated_at":"2026-05-25T13:38:11.187380Z"}}